GW0329 Weather Reports


time (UTC)temp
C
wind
direction
speed
KPH
gust
KPH
rain 1hr
cm
rain 24hr
cm
rain mn
cm
humidity
%
barometer
mb
20260506165310 11 284 3.2 9.7 0.05 1.19 1.19 82 1009.8
20260506164807 11 346 3.2 4.8 0.00 1.19 1.19 82 1009.6
20260506164304 11 295 11.3 17.7 0.00 1.19 1.19 83 1009.7
20260506163801 11 269 6.4 14.5 0.00 1.19 1.19 80 1009.8
20260506163256 11 268 11.3 12.9 0.00 1.19 1.19 82 1009.5
20260506162752 11 276 1.6 8.0 0.00 1.19 1.19 84 1009.4
20260506162250 11 282 9.7 9.7 0.00 1.19 1.19 83 1009.6
20260506161747 10 240 6.4 8.0 0.00 1.19 1.19 85 1009.3
20260506161244 10 310 4.8 12.9 0.00 1.19 1.19 83 1009.4
20260506160741 10 307 6.4 9.7 0.00 1.19 1.19 84 1009.5
20260506160238 10 241 3.2 11.3 0.00 1.19 1.19 84 1009.3
20260506155737 10 288 17.7 20.9 0.00 1.19 1.19 84 1009.3
20260506155233 11 0 4.8 20.9 0.00 1.19 1.19 83 1009.3
20260506153340 10 272 3.2 6.4 0.00 1.19 1.19 90 1009.3
20260506152837 10 22 3.2 8.0 0.00 1.19 1.19 90 1009.3
20260506152334 10 314 6.4 8.0 0.00 1.19 1.19 88 1008.9
20260506151833 10 339 3.2 16.1 0.00 1.19 1.19 90 1008.8
20260506151329 10 321 9.7 16.1 0.00 1.19 1.19 89 1008.7
20260506150826 10 277 8.0 20.9 0.00 1.19 1.19 90 1008.5
20260506150323 10 345 3.2 14.5 0.00 1.19 1.19 93 1008.5
20260506145820 9 299 0.0 6.4 0.00 1.19 1.19 93 1008.5
20260506145316 9 287 9.7 17.7 0.00 1.19 1.19 94 1008.4
20260506144814 9 273 11.3 16.1 0.00 1.19 1.19 94 1008.3
20260506144310 9 251 4.8 9.7 0.00 1.19 1.19 94 1008.3
20260506143809 9 7 6.4 6.4 0.00 1.19 1.19 95 1008.2
20260506143305 9 273 8.0 11.3 0.00 1.19 1.19 94 1008.1
20260506142804 9 266 12.9 16.1 0.00 1.19 1.19 95 1008.1
20260506142301 9 320 14.5 14.5 0.00 1.19 1.19 95 1008.0
20260506141800 9 333 1.6 6.4 0.00 1.19 1.19 96 1007.6
20260506141258 8 263 3.2 6.4 0.00 1.19 1.19 96 1007.8
20260506140755 8 311 4.8 6.4 0.00 1.19 1.19 96 1007.9
20260506140252 8 242 4.8 9.7 0.00 1.19 1.19 95 1007.7
20260506135749 8 255 4.8 8.0 0.00 1.19 1.19 96 1007.7
20260506135245 8 317 0.0 17.7 0.00 1.19 1.19 96 1007.6
20260506134742 8 17 9.7 12.9 0.00 1.19 1.19 96 1007.6
20260506134238 8 310 9.7 16.1 0.00 1.19 1.19 97 1007.5
20260506133736 8 321 9.7 12.9 0.00 1.19 1.19 97 1007.7
20260506133232 8 309 4.8 9.7 0.00 1.19 1.19 97 1007.7
20260506132729 8 324 6.4 8.0 0.00 1.19 1.19 97 1007.3
20260506132226 8 265 4.8 9.7 0.05 1.19 1.19 97 1007.2
20260506131724 8 10 0.0 6.4 0.05 1.19 1.19 97 1007.3
20260506131220 8 342 4.8 9.7 0.00 1.17 1.17 97 1007.9
20260506130717 8 33 3.2 6.4 0.00 1.17 1.17 97 1007.6
20260506130214 8 302 3.2 6.4 0.00 1.17 1.17 97 1007.5
20260506125712 7 297 3.2 14.5 0.00 1.17 1.17 97 1007.4
20260506125209 7 289 4.8 14.5 0.00 1.17 1.17 97 1007.5
20260506124707 8 284 12.9 16.1 0.00 1.17 1.17 97 1007.5
20260506124205 8 338 3.2 8.0 0.00 1.17 1.17 97 1007.4
20260506123702 8 359 9.7 11.3 0.00 1.17 1.17 97 1007.0
20260506123201 8 4 19.3 20.9 0.00 1.17 1.17 97 1006.9
20260506122657 8 304 3.2 17.7 0.00 1.17 1.17 97 1006.8
20260506122155 8 335 9.7 11.3 0.00 1.17 1.17 97 1006.5
20260506121652 8 287 8.0 9.7 0.00 1.17 1.17 97 1006.1
20260506121148 8 163 3.2 8.0 0.00 1.17 1.17 97 1006.0
20260506120647 8 46 6.4 17.7 0.05 1.17 1.17 97 1006.3
20260506120143 8 352 4.8 12.9 0.05 1.17 1.17 97 1006.7
20260506115642 8 317 4.8 9.7 0.00 1.17 1.17 96 1006.8
20260506115140 8 283 3.2 9.7 0.05 1.17 1.17 96 1006.7
20260506114637 8 350 3.2 9.7 0.05 1.17 1.17 96 1006.7
20260506114135 8 310 6.4 6.4 0.00 1.14 1.14 96 1006.7
20260506113633 8 345 6.4 6.4 0.00 1.14 1.14 96 1006.6
20260506113130 8 331 1.6 4.8 0.00 1.14 1.14 96 1006.5
20260506112626 8 337 3.2 12.9 0.00 1.14 1.14 96 1006.4
20260506112124 8 343 8.0 17.7 0.05 1.14 1.14 96 1006.2
20260506111621 9 11 11.3 14.5 0.05 1.14 1.14 96 1005.8
20260506111119 9 31 12.9 16.1 0.00 1.14 1.14 96 1005.6
20260506110616 9 327 6.4 12.9 0.00 1.14 1.14 96 1005.3
20260506110113 9 3 6.4 20.9 0.00 1.14 1.14 96 1005.7
20260506105609 10 310 6.4 12.9 0.05 1.14 1.14 96 1005.7
20260506105107 10 348 3.2 16.1 0.05 1.14 1.14 96 1005.2
20260506104605 10 288 14.5 17.7 0.05 1.14 1.14 96 1005.2
20260506104102 10 356 3.2 11.3 0.05 1.14 1.14 96 1005.7
20260506103559 10 302 4.8 12.9 0.05 1.12 1.12 96 1005.7
20260506103056 10 277 16.1 20.9 0.18 1.12 1.12 95 1005.5
20260506102554 11 309 12.9 16.1 0.30 1.09 1.09 96 1004.9
20260506102051 11 308 6.4 22.5 0.43 1.07 1.07 96 1005.1
20260506101548 11 307 12.9 19.3 0.53 1.04 1.04 96 1005.1
20260506101045 12 2 9.7 24.1 0.43 0.99 0.99 96 1005.2
20260506100543 13 256 9.7 11.3 0.23 0.97 0.97 98 1004.8
20260506100041 13 199 3.2 6.4 0.05 0.94 0.94 98 1004.7
20260506095540 13 216 6.4 6.4 0.18 0.91 0.91 97 1004.7
20260506095035 13 189 3.2 6.4 0.36 0.91 0.91 97 1004.7
20260506094533 13 200 0.0 8.0 0.30 0.89 0.89 97 1004.6
20260506094031 13 235 9.7 11.3 0.13 0.86 0.86 97 1004.5
20260506093529 13 223 6.4 9.7 0.05 0.84 0.84 97 1004.7
20260506093026 13 194 1.6 4.8 0.05 0.84 0.84 97 1004.6
20260506092524 13 192 3.2 8.0 0.13 0.81 0.81 97 1004.7
20260506092020 13 179 4.8 9.7 0.18 0.81 0.81 97 1004.6
20260506091519 13 184 3.2 14.5 0.23 0.81 0.81 97 1004.5
20260506091016 13 174 8.0 9.7 0.36 0.79 0.79 97 1004.4
20260506090514 13 214 3.2 6.4 0.23 0.76 0.76 97 1004.4
20260506090010 13 202 4.8 4.8 0.23 0.74 0.74 97 1004.7
20260506085507 13 171 4.8 12.9 0.30 0.71 0.71 97 1004.7
20260506085003 13 175 6.4 9.7 0.23 0.69 0.69 97 1004.7
20260506084500 13 219 6.4 14.5 0.23 0.66 0.66 97 1004.8
20260506083956 13 184 6.4 9.7 0.30 0.64 0.64 97 1005.0
20260506083454 13 180 4.8 9.7 0.36 0.61 0.61 97 1004.9
20260506082951 13 173 8.0 8.0 0.23 0.58 0.58 97 1005.1
20260506082448 13 191 4.8 6.4 0.23 0.56 0.56 97 1005.2
20260506081943 13 177 4.8 8.0 0.30 0.53 0.53 97 1005.3
20260506081442 13 193 4.8 8.0 0.36 0.51 0.51 97 1005.0
20260506080939 13 191 3.2 4.8 0.30 0.48 0.48 97 1005.2
20260506080436 13 185 3.2 3.2 0.23 0.46 0.46 96 1005.0
20260506073420 13 197 3.2 3.2 0.00 0.33 0.33 95 1004.9
20260506072917 13 246 1.6 3.2 0.00 0.33 0.33 95 1005.1
20260506072414 13 197 1.6 3.2 0.00 0.33 0.33 95 1004.7
20260506071912 13 177 1.6 4.8 0.00 0.33 0.33 95 1005.0
20260506071410 13 179 3.2 4.8 0.00 0.33 0.33 95 1004.9
20260506070906 13 177 3.2 6.4 0.00 0.33 0.33 95 1004.9
20260506070403 13 195 3.2 4.8 0.00 0.33 0.33 95 1005.0
20260506062340 13 179 3.2 6.4 0.05 0.30 0.30 95 1005.6
20260506061836 13 191 0.0 6.4 0.13 0.30 0.30 95 1005.7
20260506061333 13 197 1.6 8.0 0.13 0.30 0.30 94 1006.1
20260506060831 13 211 0.0 4.8 0.13 0.28 0.28 94 1005.8
20260506060329 13 272 0.0 6.4 0.13 0.28 0.28 94 1006.1
20260506051300 14 201 3.2 6.4 0.13 0.18 0.18 95 1006.7
20260506050759 14 205 3.2 6.4 0.13 0.18 0.18 95 1007.1
20260506050256 14 188 3.2 3.2 0.05 0.15 0.15 95 1006.9
20260506044746 14 186 3.2 4.8 0.13 0.15 0.15 95 1007.2
20260506044244 14 174 3.2 3.2 0.05 0.13 0.13 95 1007.2
20260506043741 14 165 0.0 3.2 0.13 0.13 0.13 94 1007.2
20260506043238 14 177 3.2 4.8 0.23 0.13 0.13 94 1007.2
20260506042737 14 183 3.2 3.2 0.23 0.10 0.10 94 1007.4
20260506042235 15 89 0.0 3.2 0.23 0.08 0.08 93 1007.4
20260506041733 15 207 3.2 4.8 0.18 0.05 0.05 93 1007.5
20260506041230 15 203 3.2 8.0 0.18 0.03 0.03 92 1007.6
20260506040727 15 212 6.4 6.4 0.18 0.03 0.03 92 1007.6
20260506040224 15 193 4.8 4.8 0.13 0.00 0.00 91 1007.4
20260506035721 15 227 4.8 6.4 0.05 0.05 0.05 90 1007.2
20260506035218 15 216 6.4 9.7 0.00 0.05 0.05 89 1007.3
20260506034714 15 265 3.2 4.8 0.05 0.05 0.05 89 1007.2
20260506034212 15 281 3.2 6.4 0.05 0.05 0.05 88 1007.2
20260506033709 15 294 4.8 12.9 0.00 0.03 0.03 87 1007.2
20260506033206 15 247 0.0 3.2 0.00 0.03 0.03 86 1007.2
20260506032703 15 294 8.0 8.0 0.00 0.03 0.03 86 1007.4
20260506032200 15 263 3.2 8.0 0.00 0.03 0.03 86 1007.4
20260506031657 15 269 4.8 8.0 0.00 0.03 0.03 85 1007.3
20260506031154 15 298 4.8 9.7 0.00 0.03 0.03 85 1007.2
20260506030652 15 297 3.2 12.9 0.00 0.03 0.03 84 1007.0
20260506030149 15 298 6.4 6.4 0.00 0.03 0.03 84 1007.4
20260506025646 15 285 6.4 8.0 0.00 0.03 0.03 83 1007.3
20260506025142 15 252 4.8 9.7 0.00 0.03 0.03 83 1007.4
20260506024640 15 281 4.8 4.8 0.00 0.03 0.03 82 1007.3
20260506024136 16 214 0.0 3.2 0.00 0.03 0.03 81 1007.1
20260506023632 16 201 0.0 0.0 0.00 0.03 0.03 81 1007.0
20260506023129 16 321 0.0 3.2 0.00 0.03 0.03 81 1007.1
20260506022627 16 257 3.2 4.8 0.00 0.03 0.03 81 1007.2
20260506022124 16 308 3.2 8.0 0.00 0.03 0.03 80 1007.0
20260506021622 16 187 0.0 3.2 0.00 0.03 0.03 80 1007.0
20260506021119 16 310 6.4 9.7 0.00 0.03 0.03 79 1007.2
20260506020616 16 16 4.8 9.7 0.00 0.03 0.03 78 1007.5
20260506020113 16 261 6.4 14.5 0.00 0.03 0.03 77 1007.2
20260506015611 16 343 6.4 9.7 0.00 0.03 0.03 76 1007.3
20260506015107 17 253 4.8 8.0 0.00 0.03 0.03 74 1007.3
20260506014605 17 5 9.7 14.5 0.00 0.03 0.03 72 1007.3
20260506014100 18 301 8.0 20.9 0.00 0.03 0.03 67 1007.3
20260506013559 20 297 11.3 14.5 0.00 0.03 0.03 53 1007.0
20260506013055 20 186 4.8 9.7 0.00 0.03 0.03 53 1006.7
20260506012551 20 220 3.2 8.0 0.00 0.03 0.03 53 1006.6
20260506012048 20 204 4.8 11.3 0.00 0.03 0.03 53 1006.5
20260506011546 20 198 8.0 19.3 0.00 0.03 0.03 53 1006.5
20260506011042 20 225 4.8 19.3 0.00 0.03 0.03 53 1006.3
20260506010542 20 231 6.4 9.7 0.00 0.03 0.03 53 1006.5
20260506010038 20 187 6.4 14.5 0.00 0.03 0.03 53 1006.2
20260506005535 20 244 6.4 9.7 0.00 0.03 0.03 53 1006.4
20260506005031 20 229 6.4 12.9 0.00 0.03 0.03 53 1006.3
20260506004528 20 180 6.4 17.7 0.00 0.03 0.03 53 1006.6
20260506004025 20 195 12.9 16.1 0.00 0.03 0.03 53 1006.5
20260506003521 20 184 8.0 9.7 0.00 0.03 0.03 54 1006.7
20260506003017 20 208 4.8 8.0 0.00 0.03 0.03 54 1006.4
20260506002514 20 202 4.8 12.9 0.00 0.03 0.03 55 1006.5
20260506002009 20 222 4.8 22.5 0.00 0.03 0.03 54 1006.4
20260506001506 20 182 1.6 14.5 0.00 0.03 0.03 54 1006.4
20260506001003 20 194 3.2 9.7 0.00 0.03 0.03 54 1006.4
20260506000501 20 219 4.8 6.4 0.00 0.03 0.03 54 1006.4
20260505235957 20 231 3.2 11.3 0.00 0.03 0.03 54 1006.6
20260505235456 20 199 6.4 8.0 0.00 0.03 0.03 53 1006.6
20260505234952 20 222 9.7 16.1 0.00 0.03 0.03 52 1006.5
20260505234450 21 218 9.7 16.1 0.00 0.03 0.03 53 1006.7
20260505233946 21 233 6.4 14.5 0.00 0.03 0.03 53 1006.4
20260505233444 21 190 8.0 22.5 0.00 0.03 0.03 54 1006.6
20260505232941 20 190 4.8 9.7 0.00 0.03 0.03 55 1006.3
20260505232439 21 218 6.4 6.4 0.00 0.03 0.03 54 1006.6
20260505231936 21 213 6.4 11.3 0.00 0.03 0.03 54 1006.5
20260505231433 21 212 4.8 9.7 0.00 0.03 0.03 54 1006.5
20260505230931 21 224 4.8 11.3 0.00 0.03 0.03 54 1006.2
20260505230429 21 182 4.8 9.7 0.00 0.03 0.03 54 1006.3
20260505225925 21 214 6.4 14.5 0.00 0.03 0.03 54 1006.4
20260505225422 21 220 4.8 9.7 0.00 0.03 0.03 54 1006.6
20260505224918 21 203 8.0 8.0 0.00 0.03 0.03 54 1006.8
20260505224415 21 227 6.4 11.3 0.00 0.03 0.03 53 1006.5
20260505223912 21 230 6.4 9.7 0.00 0.03 0.03 52 1006.6
20260505223409 21 211 14.5 25.7 0.00 0.03 0.03 51 1006.6
20260505222905 21 198 3.2 12.9 0.00 0.03 0.03 53 1006.6
20260505222401 21 215 12.9 20.9 0.00 0.03 0.03 53 1006.7
20260505221858 21 226 6.4 22.5 0.00 0.03 0.03 52 1006.7
20260505221355 21 245 1.6 12.9 0.00 0.03 0.03 54 1006.7
20260505220852 21 196 9.7 14.5 0.00 0.03 0.03 54 1006.7
20260505220349 21 209 9.7 19.3 0.00 0.03 0.03 53 1006.7
20260505215847 21 170 6.4 19.3 0.00 0.03 0.03 53 1006.6
20260505215345 21 228 6.4 9.7 0.00 0.03 0.03 54 1006.7
20260505214843 21 234 6.4 16.1 0.00 0.03 0.03 53 1006.8
20260505214340 21 206 6.4 17.7 0.00 0.03 0.03 53 1006.9
20260505213837 21 216 9.7 20.9 0.00 0.03 0.03 52 1006.7
20260505213335 21 237 9.7 24.1 0.00 0.03 0.03 52 1006.9
20260505212830 21 235 12.9 25.7 0.00 0.03 0.03 53 1006.9
20260505212327 21 218 11.3 22.5 0.00 0.03 0.03 54 1006.9
20260505211823 21 227 19.3 24.1 0.00 0.03 0.03 52 1006.8
20260505211321 21 238 14.5 22.5 0.00 0.03 0.03 53 1006.9
20260505210818 21 226 16.1 29.0 0.00 0.03 0.03 51 1007.0
20260505210315 21 210 12.9 32.2 0.00 0.03 0.03 53 1006.9
20260505205812 21 237 12.9 25.7 0.00 0.03 0.03 52 1007.0
20260505205310 21 253 11.3 17.7 0.00 0.03 0.03 53 1007.0
20260505204806 21 226 11.3 19.3 0.00 0.03 0.03 53 1007.0
20260505204304 21 225 14.5 20.9 0.00 0.03 0.03 53 1007.0
20260505203801 21 201 9.7 24.1 0.00 0.03 0.03 54 1006.8
20260505203258 21 245 25.7 30.6 0.00 0.03 0.03 52 1006.9
20260505202754 21 215 19.3 30.6 0.00 0.03 0.03 53 1006.9
20260505202250 21 263 16.1 20.9 0.00 0.03 0.03 53 1006.8
20260505201747 21 186 11.3 22.5 0.00 0.03 0.03 53 1006.9
20260505201244 21 202 8.0 11.3 0.00 0.03 0.03 54 1006.7
20260505200743 21 233 8.0 20.9 0.00 0.03 0.03 56 1006.7
20260505200240 21 213 9.7 22.5 0.00 0.03 0.03 53 1007.1
20260505195735 21 238 4.8 11.3 0.00 0.03 0.03 54 1006.9
20260505195233 21 209 6.4 20.9 0.00 0.03 0.03 53 1007.0
20260505194730 21 144 3.2 16.1 0.00 0.03 0.03 53 1007.1
20260505194226 21 227 8.0 11.3 0.00 0.03 0.03 53 1007.3
20260505193722 21 234 8.0 9.7 0.00 0.03 0.03 54 1007.2
20260505193219 21 254 9.7 22.5 0.00 0.03 0.03 53 1007.3
20260505192718 21 205 14.5 17.7 0.00 0.03 0.03 53 1007.2
20260505192215 21 237 8.0 20.9 0.00 0.03 0.03 52 1007.3
20260505191713 21 243 17.7 20.9 0.00 0.03 0.03 51 1007.4
20260505191211 21 250 22.5 27.4 0.00 0.03 0.03 51 1007.4
20260505190707 21 224 17.7 20.9 0.00 0.03 0.03 51 1007.6
20260505190207 21 228 12.9 25.7 0.00 0.03 0.03 52 1007.6
20260505185704 21 234 20.9 27.4 0.00 0.03 0.03 51 1007.6
20260505185200 21 214 9.7 20.9 0.00 0.03 0.03 52 1007.5
20260505184657 21 239 12.9 27.4 0.00 0.03 0.03 50 1007.4
20260505184154 21 221 22.5 24.1 0.00 0.03 0.03 50 1007.4
20260505183651 21 225 9.7 22.5 0.00 0.03 0.03 51 1007.7
20260505183148 22 239 9.7 25.7 0.00 0.03 0.03 49 1007.4
20260505182645 22 218 22.5 25.7 0.00 0.03 0.03 51 1007.6
20260505182142 22 232 17.7 30.6 0.00 0.03 0.03 50 1007.6
20260505181638 22 253 17.7 27.4 0.00 0.03 0.03 49 1007.6
20260505181136 22 248 17.7 22.5 0.00 0.03 0.03 50 1007.5
20260505180631 22 216 20.9 32.2 0.00 0.03 0.03 49 1007.6
20260505180129 22 245 12.9 24.1 0.00 0.03 0.03 50 1007.4
20260505175625 22 194 11.3 29.0 0.00 0.03 0.03 49 1007.6
20260505175121 22 204 6.4 25.7 0.00 0.03 0.03 51 1007.7
20260505174618 22 229 12.9 12.9 0.00 0.03 0.03 53 1007.8
20260505174114 21 218 14.5 27.4 0.00 0.03 0.03 52 1007.7
20260505173611 21 214 16.1 24.1 0.00 0.03 0.03 53 1007.7
20260505173108 21 241 12.9 20.9 0.00 0.03 0.03 52 1007.6
20260505172606 20 229 20.9 37.0 0.00 0.03 0.03 54 1007.7
20260505172102 20 241 11.3 29.0 0.00 0.03 0.03 54 1007.8
20260505171556 20 195 20.9 32.2 0.00 0.03 0.03 52 1007.9
20260505171054 20 214 25.7 27.4 0.00 0.03 0.03 53 1007.7
20260505170551 20 204 27.4 32.2 0.00 0.03 0.03 52 1007.6
20260505170047 20 238 14.5 30.6 0.00 0.03 0.03 53 1007.6